Time,TemperatureF,DewpointF,PressureIn,WindDirection,WindDirectionDegrees,WindSpeedMPH,WindSpeedGustMPH,Humidity,HourlyPrecipIn,Conditions,Clouds,dailyrainin,SoftwareType,DateUTC
2013-11-07 00:14:00,52.7,48.6,30.07,SSW,210,1.0,2.0,86,0.00,,BKN230,0.00,VWS V14.01,2013-11-07 05:14:00,
2013-11-07 00:29:00,52.3,48.5,30.06,SSW,210,0.0,2.0,87,0.00,,BKN230,0.00,VWS V14.01,2013-11-07 05:29:00,
2013-11-07 00:44:00,51.8,48.1,30.06,SSW,210,0.0,1.0,87,0.00,,SCT240,0.00,VWS V14.01,2013-11-07 05:44:00,
2013-11-07 00:59:00,51.4,48.3,30.05,SSW,210,1.0,2.0,89,0.00,,SCT240,0.00,VWS V14.01,2013-11-07 05:59:00,
2013-11-07 01:14:00,51.2,48.4,30.04,SW,220,2.0,4.0,90,0.00,,SCT240,0.00,VWS V14.01,2013-11-07 06:14:00,
2013-11-07 01:29:00,51.2,48.4,30.04,SW,225,2.0,4.0,90,0.00,,SCT240,0.00,VWS V14.01,2013-11-07 06:29:00,
2013-11-07 01:44:00,51.2,48.4,30.03,SW,214,2.0,4.0,90,0.00,,FEW250,0.00,VWS V14.01,2013-11-07 06:44:00,
2013-11-07 01:59:00,51.1,48.3,30.02,SW,214,1.0,3.0,90,0.00,,FEW250,0.00,VWS V14.01,2013-11-07 06:59:00,
2013-11-07 02:14:00,50.8,48.3,30.01,SW,228,3.0,4.0,91,0.00,,FEW250,0.00,VWS V14.01,2013-11-07 07:14:00,
2013-11-07 02:29:00,51.0,48.8,30.01,SSW,210,3.0,5.0,92,0.00,,FEW250,0.00,VWS V14.01,2013-11-07 07:29:00,
2013-11-07 02:44:00,51.2,49.0,30.00,SSW,211,4.0,7.0,92,0.00,,FEW080,0.00,VWS V14.01,2013-11-07 07:44:00,
2013-11-07 02:59:00,51.7,49.5,30.00,South,185,1.0,7.0,92,0.00,,FEW080,0.00,VWS V14.01,2013-11-07 07:59:00,
2013-11-07 03:14:00,52.2,50.2,29.99,WSW,247,1.0,8.0,93,0.00,,FEW080,0.00,VWS V14.01,2013-11-07 08:14:00,
2013-11-07 03:29:00,52.7,50.7,29.98,SW,223,6.0,7.0,93,0.00,,FEW080,0.00,VWS V14.01,2013-11-07 08:29:00,
2013-11-07 03:44:00,53.1,51.1,29.96,South,185,6.0,10.0,93,0.00,,SCT085,0.00,VWS V14.01,2013-11-07 08:44:00,
2013-11-07 03:59:00,53.4,51.4,29.96,SSW,198,8.0,11.0,93,0.00,,SCT085,0.00,VWS V14.01,2013-11-07 08:59:00,
2013-11-07 04:14:00,53.7,51.7,29.96,SSW,207,7.0,12.0,93,0.00,,SCT085,0.00,VWS V14.01,2013-11-07 09:14:00,
2013-11-07 04:29:00,53.8,51.8,29.96,SW,214,2.0,11.0,93,0.00,,SCT085,0.00,VWS V14.01,2013-11-07 09:29:00,
2013-11-07 04:44:00,53.9,51.9,29.95,SW,216,9.0,12.0,93,0.00,,SCT080,0.00,VWS V14.01,2013-11-07 09:44:00,
2013-11-07 04:59:00,53.9,51.9,29.94,SSW,207,7.0,13.0,93,0.00,,SCT080,0.00,VWS V14.01,2013-11-07 09:59:00,
2013-11-07 05:14:00,53.8,51.8,29.93,SSW,206,3.0,10.0,93,0.00,,SCT080,0.00,VWS V14.01,2013-11-07 10:14:00,
2013-11-07 05:29:00,53.9,51.9,29.93,SW,229,5.0,11.0,93,0.00,,SCT080,0.00,VWS V14.01,2013-11-07 10:29:00,
2013-11-07 05:44:00,53.9,52.2,29.92,WSW,240,3.0,12.0,94,0.00,,SCT080,0.00,VWS V14.01,2013-11-07 10:44:00,
2013-11-07 05:59:00,54.1,52.4,29.92,SW,215,5.0,12.0,94,0.00,,SCT080,0.00,VWS V14.01,2013-11-07 10:59:00,
2013-11-07 06:14:00,54.1,52.4,29.92,WSW,244,5.0,9.0,94,0.00,,SCT080,0.00,VWS V14.01,2013-11-07 11:14:00,
2013-11-07 06:29:00,54.0,52.3,29.91,SW,216,3.0,9.0,94,0.00,,SCT080,0.00,VWS V14.01,2013-11-07 11:29:00,
2013-11-07 06:44:00,53.9,52.2,29.90,SW,225,7.0,9.0,94,0.00,,SCT250,0.00,VWS V14.01,2013-11-07 11:44:00,
2013-11-07 06:59:00,54.0,52.3,29.90,SSW,211,3.0,11.0,94,0.00,,SCT250,0.00,VWS V14.01,2013-11-07 11:59:00,
2013-11-07 07:14:00,54.2,52.5,29.91,WSW,241,4.0,11.0,94,0.00,,SCT250,0.00,VWS V14.01,2013-11-07 12:14:00,
2013-11-07 07:29:00,54.8,53.1,29.92,SSW,202,5.0,9.0,94,0.00,,SCT250,0.00,VWS V14.01,2013-11-07 12:29:00,
2013-11-07 07:44:00,55.1,53.1,29.92,SSW,206,5.0,10.0,93,0.00,,SCT250,0.00,VWS V14.01,2013-11-07 12:44:00,
2013-11-07 07:59:00,55.4,53.4,29.90,SW,219,1.0,7.0,93,0.00,,SCT250,0.00,VWS V14.01,2013-11-07 12:59:00,
2013-11-07 08:14:00,55.6,53.6,29.90,WSW,240,1.0,7.0,93,0.00,,SCT250,0.00,VWS V14.01,2013-11-07 13:14:00,
2013-11-07 08:29:00,56.0,53.7,29.91,WSW,239,1.0,5.0,92,0.00,,SCT250,0.00,VWS V14.01,2013-11-07 13:29:00,
2013-11-07 08:44:00,56.3,54.0,29.91,SW,216,3.0,6.0,92,0.00,,OVC140,0.00,VWS V14.01,2013-11-07 13:44:00,
2013-11-07 08:59:00,56.6,54.0,29.90,SW,222,1.0,8.0,91,0.00,,OVC140,0.00,VWS V14.01,2013-11-07 13:59:00,
2013-11-07 09:14:00,56.8,54.2,29.91,SW,236,2.0,6.0,91,0.00,,OVC140,0.00,VWS V14.01,2013-11-07 14:14:00,
2013-11-07 09:29:00,57.0,54.1,29.91,SW,234,2.0,6.0,90,0.00,,OVC140,0.00,VWS V14.01,2013-11-07 14:29:00,
2013-11-07 09:44:00,57.2,54.3,29.91,West,259,2.0,7.0,90,0.00,,OVC090,0.00,VWS V14.01,2013-11-07 14:44:00,
2013-11-07 09:59:00,57.5,54.3,29.90,SW,233,4.0,5.0,89,0.00,,OVC090,0.00,VWS V14.01,2013-11-07 14:59:00,
2013-11-07 10:14:00,57.6,54.4,29.89,SW,235,1.0,4.0,89,0.00,,OVC090,0.00,VWS V14.01,2013-11-07 15:14:00,
2013-11-07 10:29:00,58.1,54.9,29.89,SW,235,0.0,4.0,89,0.00,,OVC090,0.00,VWS V14.01,2013-11-07 15:29:00,
2013-11-07 10:44:00,58.7,55.2,29.88,SW,215,3.0,6.0,88,0.00,,OVC075,0.00,VWS V14.01,2013-11-07 15:44:00,
2013-11-07 10:59:00,59.3,55.1,29.89,WSW,242,4.0,8.0,86,0.00,,OVC075,0.00,VWS V14.01,2013-11-07 15:59:00,
2013-11-07 11:14:00,59.7,55.2,29.89,West,265,5.0,8.0,85,0.00,,OVC075,0.00,VWS V14.01,2013-11-07 16:14:00,
2013-11-07 11:29:00,59.7,54.9,29.89,West,278,6.0,12.0,84,0.00,,OVC075,0.00,VWS V14.01,2013-11-07 16:29:00,
2013-11-07 11:44:00,58.6,54.4,29.89,WNW,294,6.0,14.0,86,0.00,,OVC090,0.00,VWS V14.01,2013-11-07 16:44:00,
2013-11-07 11:59:00,57.1,54.2,29.89,NW,311,9.0,17.0,90,0.01,,OVC090,0.01,VWS V14.01,2013-11-07 16:59:00,
2013-11-07 12:14:00,56.2,53.3,29.89,NNW,333,9.0,17.0,90,0.03,,OVC090,0.03,VWS V14.01,2013-11-07 17:14:00,
2013-11-07 12:29:00,55.1,52.2,29.89,North,9,4.0,16.0,90,0.04,,OVC090,0.04,VWS V14.01,2013-11-07 17:29:00,
2013-11-07 12:44:00,55.0,52.1,29.89,NW,321,6.0,16.0,90,0.04,,-RA,0.04,VWS V14.01,2013-11-07 17:44:00,
2013-11-07 12:59:00,54.6,51.4,29.89,NW,313,5.0,19.0,89,0.04,,-RA,0.04,VWS V14.01,2013-11-07 17:59:00,
2013-11-07 13:14:00,54.0,50.2,29.89,NW,323,5.0,16.0,87,0.03,,-RA,0.04,VWS V14.01,2013-11-07 18:14:00,
2013-11-07 13:29:00,54.1,50.3,29.89,NNW,340,11.0,14.0,87,0.01,,-RA,0.04,VWS V14.01,2013-11-07 18:29:00,
2013-11-07 13:44:00,54.3,49.9,29.89,West,270,11.0,17.0,85,0.00,,-RA,0.04,VWS V14.01,2013-11-07 18:44:00,
2013-11-07 13:59:00,54.7,49.7,29.90,NW,311,10.0,18.0,83,0.00,,-RA,0.04,VWS V14.01,2013-11-07 18:59:00,
2013-11-07 14:14:00,55.1,49.4,29.90,WSW,258,5.0,17.0,81,0.00,,-RA,0.04,VWS V14.01,2013-11-07 19:14:00,
2013-11-07 14:29:00,55.4,48.7,29.91,NNW,346,17.0,22.0,78,0.00,,-RA,0.04,VWS V14.01,2013-11-07 19:29:00,
2013-11-07 14:44:00,54.6,46.8,29.92,NNW,348,19.0,23.0,75,0.00,,BKN140,0.04,VWS V14.01,2013-11-07 19:44:00,
2013-11-07 14:59:00,53.8,46.1,29.92,WNW,292,11.0,20.0,75,0.00,,BKN140,0.04,VWS V14.01,2013-11-07 19:59:00,
2013-11-07 15:14:00,54.3,44.7,29.92,NNW,344,5.0,19.0,70,0.00,,BKN140,0.04,VWS V14.01,2013-11-07 20:14:00,
2013-11-07 15:29:00,54.6,44.7,29.93,WNW,299,12.0,14.0,69,0.00,,BKN140,0.04,VWS V14.01,2013-11-07 20:29:00,
2013-11-07 15:44:00,53.0,42.3,29.93,NW,318,11.0,24.0,67,0.00,,BKN140,0.04,VWS V14.01,2013-11-07 20:44:00,
2013-11-07 15:59:00,52.9,41.5,29.94,North,5,6.0,18.0,65,0.00,,BKN140,0.04,VWS V14.01,2013-11-07 20:59:00,
2013-11-07 16:14:00,52.1,38.7,29.95,NNW,332,9.0,22.0,60,0.00,,BKN140,0.04,VWS V14.01,2013-11-07 21:14:00,
2013-11-07 16:29:00,51.7,38.3,29.95,West,260,12.0,19.0,60,0.00,,BKN140,0.04,VWS V14.01,2013-11-07 21:29:00,
2013-11-07 16:44:00,51.2,38.2,29.95,NW,316,6.0,16.0,61,0.00,,SCT140,0.04,VWS V14.01,2013-11-07 21:44:00,
2013-11-07 16:59:00,50.5,38.8,29.96,WNW,297,6.0,12.0,64,0.00,,SCT140,0.04,VWS V14.01,2013-11-07 21:59:00,
2013-11-07 17:14:00,50.4,38.3,29.96,West,281,2.0,12.0,63,0.00,,SCT140,0.04,VWS V14.01,2013-11-07 22:14:00,
2013-11-07 17:29:00,50.1,38.0,29.97,NW,311,2.0,9.0,63,0.00,,SCT140,0.04,VWS V14.01,2013-11-07 22:29:00,
2013-11-07 17:44:00,49.6,37.9,29.97,WNW,289,6.0,9.0,64,0.00,,SCT200,0.04,VWS V14.01,2013-11-07 22:44:00,
2013-11-07 17:59:00,49.6,37.9,29.98,NW,311,5.0,17.0,64,0.00,,SCT200,0.04,VWS V14.01,2013-11-07 22:59:00,
2013-11-07 18:14:00,49.2,38.0,29.99,NW,326,2.0,11.0,65,0.00,,SCT200,0.04,VWS V14.01,2013-11-07 23:14:00,
2013-11-07 18:29:00,48.6,37.8,30.00,NW,324,3.0,10.0,66,0.00,,SCT200,0.04,VWS V14.01,2013-11-07 23:29:00,
2013-11-07 18:44:00,48.3,37.1,30.00,WNW,302,6.0,11.0,65,0.00,,SCT250,0.04,VWS V14.01,2013-11-07 23:44:00,
2013-11-07 18:59:00,48.5,36.9,30.00,NNW,329,7.0,14.0,64,0.00,,SCT250,0.04,VWS V14.01,2013-11-07 23:59:00,
2013-11-07 19:14:00,48.5,36.9,30.01,NW,309,15.0,15.0,64,0.00,,SCT055,0.04,VWS V14.01,2013-11-08 00:14:00,
2013-11-07 19:29:00,48.3,36.7,30.01,WNW,302,9.0,17.0,64,0.00,,SCT055,0.04,VWS V14.01,2013-11-08 00:29:00,
2013-11-07 19:44:00,48.3,35.5,30.02,NNW,345,4.0,20.0,61,0.00,,SCT055,0.04,VWS V14.01,2013-11-08 00:44:00,
2013-11-07 19:59:00,48.0,34.4,30.03,WNW,291,8.0,25.0,59,0.00,,SCT055,0.04,VWS V14.01,2013-11-08 00:59:00,
2013-11-07 20:14:00,47.6,33.6,30.03,NW,311,9.0,20.0,58,0.00,,SCT055,0.04,VWS V14.01,2013-11-08 01:14:00,
2013-11-07 20:29:00,47.1,32.7,30.04,NW,319,11.0,17.0,57,0.00,,SCT055,0.04,VWS V14.01,2013-11-08 01:29:00,
2013-11-07 20:44:00,46.8,32.0,30.04,North,5,6.0,17.0,56,0.00,,BKN050,0.04,VWS V14.01,2013-11-08 01:44:00,
2013-11-07 20:59:00,46.7,31.4,30.04,North,349,3.0,13.0,55,0.00,,BKN050,0.04,VWS V14.01,2013-11-08 01:59:00,
2013-11-07 21:14:00,46.5,31.7,30.04,NW,309,7.0,7.0,56,0.00,,BKN050,0.04,VWS V14.01,2013-11-08 02:14:00,
2013-11-07 21:29:00,46.3,31.5,30.04,NW,316,5.0,14.0,56,0.00,,BKN050,0.04,VWS V14.01,2013-11-08 02:29:00,
2013-11-07 21:44:00,46.5,31.2,30.04,NW,313,5.0,14.0,55,0.01,,FEW055,0.05,VWS V14.01,2013-11-08 02:44:00,
2013-11-07 21:59:00,46.4,31.6,30.04,NW,304,6.0,9.0,56,0.01,,FEW055,0.05,VWS V14.01,2013-11-08 02:59:00,
2013-11-07 22:14:00,46.5,32.1,30.04,NW,315,3.0,9.0,57,0.01,,FEW055,0.05,VWS V14.01,2013-11-08 03:14:00,
2013-11-07 22:29:00,46.4,31.1,30.05,NW,318,14.0,19.0,55,0.01,,FEW055,0.05,VWS V14.01,2013-11-08 03:29:00,
2013-11-07 22:44:00,45.7,28.6,30.05,NW,315,7.0,22.0,51,0.01,,BKN060,0.05,VWS V14.01,2013-11-08 03:44:00,
2013-11-07 22:59:00,44.9,27.4,30.06,NNW,329,15.0,15.0,50,0.00,,BKN060,0.05,VWS V14.01,2013-11-08 03:59:00,
2013-11-07 23:14:00,43.9,25.5,30.07,North,9,7.0,20.0,48,0.00,,BKN060,0.05,VWS V14.01,2013-11-08 04:14:00,
2013-11-07 23:29:00,43.1,24.3,30.08,North,351,6.0,15.0,47,0.00,,BKN060,0.05,VWS V14.01,2013-11-08 04:29:00,
2013-11-07 23:44:00,42.5,24.2,30.08,WNW,298,5.0,16.0,48,0.00,,BKN055,0.05,VWS V14.01,2013-11-08 04:44:00,
2013-11-07 23:59:00,42.2,23.9,30.08,WNW,297,7.0,11.0,48,0.00,,BKN055,0.05,VWS V14.01,2013-11-08 04:59:00,